| time (UTC) | temp C | wind direction | speed KPH | gust KPH | rain 1hr cm | rain 24hr cm | rain mn cm | humidity % | barometer mb |
| 20260503215300 | 17 | 57 | 4.8 | 4.8 | 0.00 | 0.00 | 0.00 | 41 | 1012.5 |
| 20260503214758 | 17 | 87 | 4.8 | 16.1 | 0.00 | 0.00 | 0.00 | 42 | 1012.7 |
| 20260503214255 | 17 | 250 | 3.2 | 9.7 | 0.00 | 0.00 | 0.00 | 39 | 1013.1 |
| 20260503213752 | 17 | 205 | 4.8 | 17.7 | 0.00 | 0.00 | 0.00 | 40 | 1013.1 |
| 20260503213250 | 17 | 184 | 8.0 | 16.1 | 0.00 | 0.00 | 0.00 | 40 | 1013.0 |
| 20260503212746 | 17 | 291 | 0.0 | 14.5 | 0.00 | 0.00 | 0.00 | 40 | 1013.1 |
| 20260503212244 | 17 | 223 | 8.0 | 20.9 | 0.00 | 0.00 | 0.00 | 38 | 1013.2 |
| 20260503211742 | 17 | 164 | 3.2 | 8.0 | 0.00 | 0.00 | 0.00 | 39 | 1013.3 |
| 20260503211238 | 17 | 248 | 0.0 | 12.9 | 0.00 | 0.00 | 0.00 | 40 | 1013.5 |
| 20260503210733 | 17 | 25 | 4.8 | 9.7 | 0.00 | 0.00 | 0.00 | 37 | 1012.8 |
| 20260503210231 | 17 | 204 | 11.3 | 17.7 | 0.00 | 0.00 | 0.00 | 40 | 1013.0 |
| 20260503205726 | 17 | 179 | 8.0 | 22.5 | 0.00 | 0.00 | 0.00 | 39 | 1012.9 |
| 20260503205222 | 17 | 203 | 9.7 | 11.3 | 0.00 | 0.00 | 0.00 | 39 | 1013.0 |
| 20260503204719 | 17 | 195 | 6.4 | 17.7 | 0.00 | 0.00 | 0.00 | 39 | 1013.2 |
| 20260503204217 | 17 | 253 | 3.2 | 6.4 | 0.00 | 0.00 | 0.00 | 39 | 1013.3 |
| 20260503203714 | 17 | 304 | 0.0 | 9.7 | 0.00 | 0.00 | 0.00 | 40 | 1013.4 |
| 20260503203211 | 17 | 261 | 3.2 | 8.0 | 0.00 | 0.00 | 0.00 | 40 | 1013.6 |
| 20260503202708 | 17 | 18 | 1.6 | 11.3 | 0.00 | 0.00 | 0.00 | 37 | 1013.5 |
| 20260503202206 | 17 | 156 | 12.9 | 12.9 | 0.00 | 0.00 | 0.00 | 38 | 1013.5 |
| 20260503201704 | 17 | 111 | 0.0 | 11.3 | 0.00 | 0.00 | 0.00 | 41 | 1013.4 |
| 20260503201201 | 18 | 53 | 3.2 | 6.4 | 0.00 | 0.00 | 0.00 | 37 | 1013.7 |
| 20260503200657 | 18 | 66 | 3.2 | 9.7 | 0.00 | 0.00 | 0.00 | 41 | 1014.2 |
| 20260503200154 | 17 | 180 | 3.2 | 14.5 | 0.00 | 0.00 | 0.00 | 38 | 1014.0 |
| 20260503195651 | 17 | 0 | 1.6 | 16.1 | 0.00 | 0.00 | 0.00 | 39 | 1013.8 |
| 20260503195148 | 17 | 209 | 4.8 | 11.3 | 0.00 | 0.00 | 0.00 | 37 | 1014.1 |
| 20260503194645 | 17 | 207 | 8.0 | 11.3 | 0.00 | 0.00 | 0.00 | 36 | 1014.2 |
| 20260503194140 | 17 | 214 | 8.0 | 8.0 | 0.00 | 0.00 | 0.00 | 40 | 1014.5 |
| 20260503193637 | 17 | 5 | 0.0 | 8.0 | 0.00 | 0.00 | 0.00 | 39 | 1014.8 |
| 20260503193132 | 18 | 186 | 4.8 | 8.0 | 0.00 | 0.00 | 0.00 | 35 | 1014.8 |
| 20260503192628 | 17 | 257 | 1.6 | 8.0 | 0.00 | 0.00 | 0.00 | 39 | 1014.7 |
| 20260503192124 | 17 | 188 | 8.0 | 8.0 | 0.00 | 0.00 | 0.00 | 38 | 1014.7 |
| 20260503191621 | 17 | 8 | 11.3 | 12.9 | 0.00 | 0.00 | 0.00 | 38 | 1015.1 |
| 20260503191118 | 17 | 147 | 3.2 | 11.3 | 0.00 | 0.00 | 0.00 | 41 | 1015.0 |
| 20260503190615 | 18 | 236 | 3.2 | 6.4 | 0.00 | 0.00 | 0.00 | 39 | 1015.1 |
| 20260503190112 | 17 | 214 | 6.4 | 17.7 | 0.00 | 0.00 | 0.00 | 40 | 1015.3 |
| 20260503185609 | 17 | 231 | 4.8 | 8.0 | 0.00 | 0.00 | 0.00 | 41 | 1015.5 |
| 20260503185109 | 17 | 257 | 0.0 | 20.9 | 0.00 | 0.00 | 0.00 | 46 | 1015.5 |
| 20260503184604 | 16 | 233 | 8.0 | 12.9 | 0.00 | 0.00 | 0.00 | 40 | 1015.6 |
| 20260503184101 | 17 | 9 | 6.4 | 6.4 | 0.00 | 0.00 | 0.00 | 41 | 1015.6 |
| 20260503183558 | 17 | 55 | 8.0 | 14.5 | 0.00 | 0.00 | 0.00 | 39 | 1016.0 |
| 20260503183055 | 16 | 231 | 4.8 | 17.7 | 0.00 | 0.00 | 0.00 | 39 | 1015.6 |
| 20260503182553 | 16 | 337 | 1.6 | 19.3 | 0.00 | 0.00 | 0.00 | 43 | 1016.0 |
| 20260503182051 | 17 | 180 | 6.4 | 8.0 | 0.00 | 0.00 | 0.00 | 43 | 1016.0 |
| 20260503181548 | 17 | 185 | 0.0 | 9.7 | 0.00 | 0.00 | 0.00 | 39 | 1016.0 |
| 20260503181044 | 16 | 183 | 8.0 | 11.3 | 0.00 | 0.00 | 0.00 | 38 | 1016.0 |
| 20260503180541 | 17 | 255 | 3.2 | 17.7 | 0.00 | 0.00 | 0.00 | 44 | 1016.2 |
| 20260503180039 | 16 | 174 | 4.8 | 11.3 | 0.00 | 0.00 | 0.00 | 39 | 1016.2 |
| 20260503175536 | 16 | 35 | 1.6 | 14.5 | 0.00 | 0.00 | 0.00 | 43 | 1016.4 |
| 20260503175033 | 16 | 216 | 3.2 | 14.5 | 0.00 | 0.00 | 0.00 | 42 | 1016.2 |
| 20260503174530 | 16 | 131 | 6.4 | 17.7 | 0.00 | 0.00 | 0.00 | 37 | 1016.4 |
| 20260503174026 | 16 | 192 | 3.2 | 11.3 | 0.00 | 0.00 | 0.00 | 41 | 1016.3 |
| 20260503173521 | 16 | 90 | 0.0 | 8.0 | 0.00 | 0.00 | 0.00 | 39 | 1016.6 |
| 20260503173018 | 15 | 187 | 1.6 | 6.4 | 0.00 | 0.00 | 0.00 | 42 | 1016.8 |
| 20260503172516 | 15 | 183 | 11.3 | 17.7 | 0.00 | 0.00 | 0.00 | 39 | 1016.7 |
| 20260503172013 | 15 | 179 | 9.7 | 17.7 | 0.00 | 0.00 | 0.00 | 38 | 1016.8 |
| 20260503171509 | 16 | 270 | 0.0 | 9.7 | 0.00 | 0.00 | 0.00 | 42 | 1016.9 |
| 20260503171007 | 15 | 210 | 9.7 | 19.3 | 0.00 | 0.00 | 0.00 | 39 | 1017.3 |
| 20260503170503 | 15 | 84 | 3.2 | 8.0 | 0.00 | 0.00 | 0.00 | 38 | 1017.1 |
| 20260503150855 | 14 | 341 | 4.8 | 4.8 | 0.00 | 0.00 | 0.00 | 45 | 1018.3 |
| 20260503150351 | 14 | 312 | 3.2 | 6.4 | 0.00 | 0.00 | 0.00 | 49 | 1018.2 |
| 20260503131245 | 8 | 35 | 1.6 | 8.0 | 0.00 | 0.00 | 0.00 | 74 | 1018.5 |
| 20260503130743 | 7 | 90 | 1.6 | 3.2 | 0.00 | 0.00 | 0.00 | 77 | 1018.5 |
| 20260503130240 | 7 | 15 | 0.0 | 4.8 | 0.00 | 0.00 | 0.00 | 77 | 1018.4 |
| 20260503120206 | 2 | 85 | 3.2 | 3.2 | 0.00 | 0.00 | 0.00 | 99 | 1017.9 |
| 20260503110633 | 1 | 78 | 1.6 | 3.2 | 0.00 | 0.00 | 0.00 | 98 | 1017.7 |
| 20260503110130 | 1 | 85 | 3.2 | 3.2 | 0.00 | 0.00 | 0.00 | 98 | 1017.4 |
| 20260503081440 | 0 | 90 | 1.6 | 3.2 | 0.00 | 0.00 | 0.00 | 97 | 1017.0 |
| 20260503080938 | 0 | 95 | 3.2 | 3.2 | 0.00 | 0.00 | 0.00 | 96 | 1017.0 |
| 20260503080434 | 0 | 90 | 3.2 | 3.2 | 0.00 | 0.00 | 0.00 | 96 | 1017.1 |
| 20260503072909 | 0 | 90 | 1.6 | 3.2 | 0.00 | 0.00 | 0.00 | 96 | 1016.9 |
| 20260503072402 | 1 | 85 | 3.2 | 3.2 | 0.00 | 0.00 | 0.00 | 96 | 1017.1 |
| 20260503071858 | 1 | 85 | 3.2 | 3.2 | 0.00 | 0.00 | 0.00 | 95 | 1016.8 |
| 20260503071356 | 1 | 81 | 3.2 | 3.2 | 0.00 | 0.00 | 0.00 | 95 | 1017.0 |
| 20260503070851 | 1 | 96 | 3.2 | 3.2 | 0.00 | 0.00 | 0.00 | 95 | 1017.1 |
| 20260503070349 | 1 | 90 | 1.6 | 3.2 | 0.00 | 0.00 | 0.00 | 95 | 1017.0 |
| 20260503060309 | 1 | 84 | 3.2 | 3.2 | 0.00 | 0.00 | 0.00 | 94 | 1017.3 |
| 20260503054756 | 1 | 85 | 3.2 | 3.2 | 0.00 | 0.00 | 0.00 | 94 | 1017.3 |
| 20260503054252 | 1 | 90 | 3.2 | 3.2 | 0.00 | 0.00 | 0.00 | 94 | 1017.4 |
| 20260503053749 | 1 | 85 | 0.0 | 3.2 | 0.00 | 0.00 | 0.00 | 94 | 1017.2 |
| 20260503053243 | 2 | 90 | 3.2 | 3.2 | 0.00 | 0.00 | 0.00 | 93 | 1017.4 |
| 20260503052738 | 2 | 68 | 3.2 | 3.2 | 0.00 | 0.00 | 0.00 | 93 | 1017.4 |
| 20260503052236 | 2 | 85 | 3.2 | 3.2 | 0.00 | 0.00 | 0.00 | 93 | 1017.4 |
| 20260503051730 | 2 | 79 | 3.2 | 3.2 | 0.00 | 0.00 | 0.00 | 92 | 1017.3 |
| 20260503051229 | 2 | 74 | 3.2 | 3.2 | 0.00 | 0.00 | 0.00 | 92 | 1017.3 |
| 20260503050725 | 2 | 83 | 1.6 | 3.2 | 0.00 | 0.00 | 0.00 | 92 | 1017.4 |
| 20260503050221 | 2 | 90 | 1.6 | 3.2 | 0.00 | 0.00 | 0.00 | 91 | 1017.3 |
| 20260503045719 | 2 | 74 | 3.2 | 3.2 | 0.00 | 0.00 | 0.00 | 91 | 1017.4 |
| 20260503045216 | 2 | 85 | 3.2 | 4.8 | 0.00 | 0.00 | 0.00 | 91 | 1017.2 |
| 20260503044713 | 2 | 90 | 3.2 | 4.8 | 0.00 | 0.00 | 0.00 | 91 | 1017.6 |
| 20260503044210 | 2 | 78 | 1.6 | 3.2 | 0.00 | 0.00 | 0.00 | 90 | 1017.4 |
| 20260503043707 | 3 | 75 | 1.6 | 3.2 | 0.00 | 0.00 | 0.00 | 89 | 1017.4 |
| 20260503043205 | 3 | 90 | 1.6 | 3.2 | 0.00 | 0.00 | 0.00 | 88 | 1017.4 |
| 20260503042700 | 3 | 90 | 1.6 | 3.2 | 0.00 | 0.00 | 0.00 | 86 | 1017.2 |
| 20260503042157 | 3 | 96 | 3.2 | 3.2 | 0.00 | 0.00 | 0.00 | 86 | 1017.5 |
| 20260503041653 | 3 | 114 | 1.6 | 3.2 | 0.00 | 0.00 | 0.00 | 87 | 1017.2 |
| 20260503041151 | 3 | 84 | 1.6 | 3.2 | 0.00 | 0.00 | 0.00 | 88 | 1017.2 |
| 20260503040648 | 3 | 90 | 1.6 | 3.2 | 0.00 | 0.00 | 0.00 | 88 | 1017.1 |
| 20260503040146 | 3 | 95 | 3.2 | 3.2 | 0.00 | 0.00 | 0.00 | 87 | 1017.3 |
| 20260503035642 | 3 | 90 | 3.2 | 3.2 | 0.00 | 0.00 | 0.00 | 87 | 1017.1 |
| 20260503035140 | 3 | 90 | 3.2 | 3.2 | 0.00 | 0.00 | 0.00 | 87 | 1017.4 |
| 20260503034637 | 3 | 90 | 3.2 | 3.2 | 0.00 | 0.00 | 0.00 | 87 | 1017.2 |
| 20260503034134 | 3 | 90 | 3.2 | 3.2 | 0.00 | 0.00 | 0.00 | 86 | 1017.1 |
| 20260503033631 | 4 | 90 | 3.2 | 3.2 | 0.00 | 0.00 | 0.00 | 84 | 1017.3 |
| 20260503033129 | 4 | 90 | 1.6 | 3.2 | 0.00 | 0.00 | 0.00 | 83 | 1017.1 |
| 20260503032627 | 4 | 121 | 3.2 | 3.2 | 0.00 | 0.00 | 0.00 | 84 | 1017.0 |
| 20260503032125 | 4 | 83 | 1.6 | 3.2 | 0.00 | 0.00 | 0.00 | 84 | 1017.2 |
| 20260503031622 | 4 | 90 | 1.6 | 3.2 | 0.00 | 0.00 | 0.00 | 83 | 1017.3 |
| 20260503031120 | 5 | 105 | 1.6 | 3.2 | 0.00 | 0.00 | 0.00 | 83 | 1017.1 |
| 20260503030615 | 5 | 83 | 1.6 | 3.2 | 0.00 | 0.00 | 0.00 | 83 | 1017.2 |
| 20260503030112 | 5 | 90 | 1.6 | 3.2 | 0.00 | 0.00 | 0.00 | 83 | 1017.4 |
| 20260503025609 | 5 | 96 | 1.6 | 3.2 | 0.00 | 0.00 | 0.00 | 83 | 1017.1 |
| 20260503025107 | 5 | 90 | 1.6 | 3.2 | 0.00 | 0.00 | 0.00 | 82 | 1017.0 |
| 20260503024603 | 5 | 90 | 3.2 | 3.2 | 0.00 | 0.00 | 0.00 | 82 | 1017.0 |
| 20260503024100 | 5 | 90 | 1.6 | 3.2 | 0.00 | 0.00 | 0.00 | 80 | 1017.0 |
| 20260503023557 | 5 | 90 | 0.0 | 3.2 | 0.00 | 0.00 | 0.00 | 79 | 1016.8 |
| 20260503023054 | 5 | 90 | 3.2 | 3.2 | 0.00 | 0.00 | 0.00 | 79 | 1016.8 |
| 20260503022550 | 5 | 90 | 3.2 | 3.2 | 0.00 | 0.00 | 0.00 | 80 | 1016.7 |
| 20260503022045 | 5 | 84 | 1.6 | 3.2 | 0.00 | 0.00 | 0.00 | 79 | 1016.8 |
| 20260503021542 | 6 | 90 | 3.2 | 3.2 | 0.00 | 0.00 | 0.00 | 79 | 1016.6 |
| 20260503021039 | 6 | 95 | 3.2 | 3.2 | 0.00 | 0.00 | 0.00 | 79 | 1016.7 |
| 20260503020536 | 6 | 95 | 3.2 | 3.2 | 0.00 | 0.00 | 0.00 | 77 | 1016.4 |
| 20260503020033 | 6 | 103 | 3.2 | 3.2 | 0.00 | 0.00 | 0.00 | 80 | 1016.3 |
| 20260503015530 | 6 | 90 | 3.2 | 3.2 | 0.00 | 0.00 | 0.00 | 79 | 1016.4 |
| 20260503015027 | 6 | 78 | 1.6 | 3.2 | 0.00 | 0.00 | 0.00 | 78 | 1016.4 |
| 20260503014523 | 6 | 84 | 3.2 | 3.2 | 0.00 | 0.00 | 0.00 | 77 | 1016.3 |
| 20260503014021 | 6 | 98 | 3.2 | 3.2 | 0.00 | 0.00 | 0.00 | 77 | 1016.3 |
| 20260503013518 | 6 | 90 | 3.2 | 3.2 | 0.00 | 0.00 | 0.00 | 75 | 1016.2 |
| 20260503013016 | 6 | 95 | 3.2 | 3.2 | 0.00 | 0.00 | 0.00 | 78 | 1016.0 |
| 20260503012513 | 7 | 68 | 3.2 | 3.2 | 0.00 | 0.00 | 0.00 | 78 | 1016.1 |
| 20260503012009 | 7 | 90 | 1.6 | 4.8 | 0.00 | 0.00 | 0.00 | 75 | 1015.9 |
| 20260503011506 | 7 | 90 | 1.6 | 3.2 | 0.00 | 0.00 | 0.00 | 76 | 1015.6 |
| 20260503011004 | 7 | 80 | 3.2 | 3.2 | 0.00 | 0.00 | 0.00 | 74 | 1015.7 |
| 20260503010459 | 7 | 84 | 1.6 | 3.2 | 0.00 | 0.00 | 0.00 | 72 | 1015.6 |
| 20260503005957 | 8 | 90 | 1.6 | 3.2 | 0.00 | 0.00 | 0.00 | 75 | 1015.7 |
| 20260503005454 | 8 | 69 | 1.6 | 3.2 | 0.00 | 0.00 | 0.00 | 72 | 1015.4 |
| 20260503004951 | 8 | 94 | 3.2 | 3.2 | 0.00 | 0.00 | 0.00 | 75 | 1015.3 |
| 20260503004447 | 8 | 80 | 3.2 | 3.2 | 0.00 | 0.00 | 0.00 | 74 | 1015.5 |
| 20260503003945 | 9 | 69 | 1.6 | 3.2 | 0.00 | 0.00 | 0.00 | 73 | 1015.0 |
| 20260503003442 | 9 | 75 | 1.6 | 3.2 | 0.00 | 0.00 | 0.00 | 70 | 1015.3 |
| 20260503002939 | 9 | 77 | 1.6 | 3.2 | 0.00 | 0.00 | 0.00 | 65 | 1015.4 |
| 20260503002436 | 9 | 83 | 1.6 | 3.2 | 0.00 | 0.00 | 0.00 | 64 | 1015.1 |
| 20260503001932 | 10 | 90 | 3.2 | 3.2 | 0.00 | 0.00 | 0.00 | 67 | 1015.1 |
| 20260503001429 | 10 | 126 | 0.0 | 3.2 | 0.00 | 0.00 | 0.00 | 66 | 1015.4 |
| 20260503000927 | 10 | 84 | 3.2 | 3.2 | 0.00 | 0.00 | 0.00 | 65 | 1015.0 |
| 20260503000423 | 10 | 78 | 1.6 | 3.2 | 0.00 | 0.00 | 0.00 | 64 | 1015.1 |
| 20260502235920 | 10 | 103 | 1.6 | 3.2 | 0.00 | 0.00 | 0.00 | 65 | 1014.7 |
| 20260502235417 | 10 | 45 | 3.2 | 3.2 | 0.00 | 0.00 | 0.00 | 60 | 1014.7 |
| 20260502234914 | 10 | 74 | 0.0 | 4.8 | 0.00 | 0.00 | 0.00 | 61 | 1014.9 |
| 20260502234410 | 10 | 117 | 0.0 | 1.6 | 0.00 | 0.00 | 0.00 | 61 | 1014.9 |
| 20260502233908 | 10 | 81 | 0.0 | 3.2 | 0.00 | 0.00 | 0.00 | 63 | 1014.8 |
| 20260502233357 | 10 | 90 | 1.6 | 1.6 | 0.00 | 0.00 | 0.00 | 60 | 1014.8 |
| 20260502232855 | 10 | 75 | 0.0 | 1.6 | 0.00 | 0.00 | 0.00 | 64 | 1014.8 |
| 20260502232351 | 10 | 74 | 1.6 | 3.2 | 0.00 | 0.00 | 0.00 | 63 | 1014.8 |
| 20260502231848 | 10 | 74 | 1.6 | 1.6 | 0.00 | 0.00 | 0.00 | 63 | 1014.9 |
| 20260502231346 | 10 | 69 | 1.6 | 3.2 | 0.00 | 0.00 | 0.00 | 61 | 1014.8 |
| 20260502230844 | 11 | 99 | 0.0 | 3.2 | 0.00 | 0.00 | 0.00 | 64 | 1014.8 |
| 20260502230341 | 11 | 63 | 0.0 | 3.2 | 0.00 | 0.00 | 0.00 | 59 | 1014.8 |
| 20260502225837 | 11 | 12 | 3.2 | 6.4 | 0.00 | 0.00 | 0.00 | 58 | 1014.9 |
| 20260502225329 | 12 | 45 | 4.8 | 4.8 | 0.00 | 0.00 | 0.00 | 57 | 1014.8 |
| 20260502224826 | 12 | 254 | 0.0 | 1.6 | 0.00 | 0.00 | 0.00 | 55 | 1014.8 |
| 20260502224322 | 12 | 23 | 0.0 | 0.0 | 0.00 | 0.00 | 0.00 | 57 | 1014.7 |
| 20260502223820 | 11 | 139 | 0.0 | 4.8 | 0.00 | 0.00 | 0.00 | 57 | 1015.0 |
| 20260502223318 | 11 | 41 | 3.2 | 3.2 | 0.00 | 0.00 | 0.00 | 60 | 1015.0 |
| 20260502222815 | 11 | 98 | 0.0 | 3.2 | 0.00 | 0.00 | 0.00 | 63 | 1014.7 |
| 20260502222312 | 11 | 105 | 3.2 | 3.2 | 0.00 | 0.00 | 0.00 | 61 | 1014.9 |
| 20260502221808 | 11 | 77 | 0.0 | 4.8 | 0.00 | 0.00 | 0.00 | 63 | 1014.7 |
| 20260502221304 | 11 | 90 | 0.0 | 3.2 | 0.00 | 0.00 | 0.00 | 61 | 1014.9 |
| 20260502220802 | 11 | 32 | 1.6 | 1.6 | 0.00 | 0.00 | 0.00 | 59 | 1014.4 |
| 20260502220257 | 11 | 151 | 0.0 | 1.6 | 0.00 | 0.00 | 0.00 | 57 | 1014.7 |
| 20260502215754 | 11 | 74 | 0.0 | 4.8 | 0.00 | 0.00 | 0.00 | 57 | 1014.9 |